Cahokia, IL

9:35 PM CDT on September 22, 2017 (GMT -0500)
Saint Louis Downtown

Weather History for KCPS - May, 2014

Change the Weather History Date:

Monday, May 19, 2014

  Actual Average Record
Temperature  
Mean Temperature 64 °F -  
Max Temperature 78 °F 70 °F 93 °F (1998)
Min Temperature 51 °F 54 °F 42 °F (2002)
Degree Days  
Heating Degree Days 1    
Growing Degree Days 14 (Base 50)    
Moisture  
Dew Point 53 °F    
Average Humidity 63    
Maximum Humidity 74    
Minimum Humidity 56    
Precipitation  
Precipitation 0.00 in - - ()
Sea Level Pressure  
Sea Level Pressure 30.05 in    
Wind  
Wind Speed 9 mph (SSE)    
Max Wind Speed 20 mph    
Max Gust Speed 29 mph    
Visibility 10 miles    
Events      
Averages and records for this station are not official NWS values.
T = Trace of Precipitation, MM = Missing Value Source: NWS Daily Summary

Daily Weather History Graph

Daily Weather History Graph

Search for Another Location

Airport or City:

Trip Planner

Search our weather history database for the weather conditions in past years. The results will help you decide how hot, cold, wet, or windy it might be!

Date:

Astronomy

May. 19, 2014 Rise Set
Actual Time 5:45 AM CDT 8:09 PM CDT
Civil Twilight 5:15 AM CDT 8:39 PM CDT
Nautical Twilight 4:38 AM CDT 9:16 PM CDT
Astronomical Twilight 3:57 AM CDT 9:58 PM CDT
Moon No Moon Rise 10:42 AM CDT (5/19)
Length of Visible Light 15h 23m
Length of Day
14h 23m
Waning Gibbous, 71% of the Moon is Illuminated
May 19
Waning Gibbous
May 21
Last Quarter
May 28
New
Jun 5
First Quarter
Jun 12
Full

Hourly Weather History & Observations

Time (CDT) Temp. Dew Point Humidity Pressure Visibility Wind Dir Wind Speed Gust Speed Precip Events Conditions
12:53 AM 53.1 °F 43.0 °F 69% 30.17 in 10.0 mi SSE 5.8 mph - N/A   Clear
1:53 AM 52.0 °F 43.0 °F 71% 30.17 in 10.0 mi SE 4.6 mph - N/A   Clear
2:53 AM 51.1 °F 42.1 °F 71% 30.17 in 10.0 mi SSE 5.8 mph - N/A   Clear
3:53 AM 51.1 °F 43.0 °F 74% 30.17 in 10.0 mi SSE 4.6 mph - N/A   Clear
4:53 AM 51.1 °F 43.0 °F 74% 30.17 in 10.0 mi SE 6.9 mph - N/A   Clear
5:53 AM 52.0 °F 43.0 °F 71% 30.18 in 10.0 mi SE 6.9 mph - N/A   Clear
6:53 AM 54.0 °F 44.1 °F 69% 30.18 in 10.0 mi SE 8.1 mph - N/A   Clear
9:53 AM 63.0 °F 46.9 °F 56% 30.17 in 10.0 mi SSE 16.1 mph 19.6 mph N/A   Overcast
10:53 AM 66.0 °F 51.1 °F 59% 30.15 in 10.0 mi SSE 10.4 mph - N/A   Overcast
11:53 AM 69.1 °F 53.1 °F 57% 30.12 in 10.0 mi South 19.6 mph 25.3 mph N/A   Overcast
1:53 PM 75.9 °F 59.0 °F 56% 30.05 in 10.0 mi SSE 17.3 mph 24.2 mph N/A   Clear
2:53 PM 75.9 °F 59.0 °F 56% 30.02 in 10.0 mi SSE 15.0 mph 26.5 mph N/A   Clear
3:53 PM 77.0 °F 61.0 °F 58% 30.00 in 10.0 mi SSE 17.3 mph 23.0 mph N/A   Scattered Clouds
4:53 PM 75.9 °F 61.0 °F 60% 29.95 in 10.0 mi South 18.4 mph 28.8 mph N/A   Partly Cloudy
5:53 PM 77.0 °F 61.0 °F 58% 29.93 in 10.0 mi SSE 18.4 mph 26.5 mph N/A   Mostly Cloudy
6:53 PM 77.0 °F 61.0 °F 58% 29.91 in 10.0 mi SSE 15.0 mph 24.2 mph N/A   Partly Cloudy
7:53 PM 75.0 °F 60.1 °F 60% 29.89 in 10.0 mi South 12.7 mph 24.2 mph N/A   Clear
8:53 PM 73.9 °F 59.0 °F 59% 29.88 in 10.0 mi South 12.7 mph 19.6 mph N/A   Clear
9:53 PM 73.0 °F 60.1 °F 64% 29.89 in 10.0 mi SSW 8.1 mph 18.4 mph N/A   Clear
10:53 PM 72.0 °F 59.0 °F 64% 29.91 in 10.0 mi South 8.1 mph - N/A   Clear
11:53 PM 70.0 °F 59.0 °F 68% 29.93 in 10.0 mi SSE 3.5 mph - N/A   Clear